トンボー-テナグラ彗星

274P/Tombaugh-Tenagra (2022)

English version
Home page
Updated on November 3, 2020

---------------------------------------------------------------------

・ プロフィール

・ 軌道要素

Epoch 2022 Apr. 11.0 TT = JDT 2459680.5
T 2022 Apr. 8.46682 TT                                  MPC
q   2.4531533            (2000.0)            P               Q
n   0.10768888     Peri.   38.46921     -0.47382375     -0.83838920
a   4.3754440      Node    81.33945     +0.72539506     -0.54505925
e   0.4393361      Incl.   15.81555     +0.49929257     -0.00373614
P   9.15
From 580 observations 1931 Jan. 12-2013 May 21, mean residual 0".5.

・ 光度変化

        m1 = 12.0 + 5 logΔ + 10.0 log r

---------------------------------------------------------------------

軌道要素はM.P.E.C. 2014-J58に掲載されたものです。
光度グラフはComet for Windowsで作成したものです。

---------------------------------------------------------------------

Copyright(C) Seiichi Yoshida (comet@aerith.net). All rights reserved.